KEPLER-8 (AMAROK) (47476 NORAD) Tracking and Keplerian Element Data

This shows tracking and keplerian element data for the satellite.

Feedback or suggestion? Click here.




ElementValue
Catalog47476
NameKEPLER-8 (AMAROK)
Epoch Orbit1198
Epoch Day101.91271845
Epoch Year2021
RAAN164.2605
Inclination97.5028
Eccentricity0.0008412
Argument of Perigee357.2694
Mean Anonmoly2.8489
Mean Motion15.11818608
Decay Rate1.126E-05
L11 47476U 21006BR 21101.91271845 .00001126 00000-0 69644-4 0 9992
L22 47476 97.5028 164.2605 0008412 357.2694 2.8489 15.11818608 11985

Live tracking and technical data element details for KEPLER-8 (AMAROK) (NORAD 47476). KEPLER-8 (AMAROK) can be tracked NOW for your location showing map with azimuth and elevation plus other details from your city location.

Track the satellite on the map from your city or location and see movement details for azimuth, elevation, latitude, longitude, range, height, and movement on the map or in text.







IsCatalogInMostPopularTable: catalog: 47476, numindb: 12
Update: records affected: 1



GetName: 47476 KEPLER-8 (AMAROK)

Hit Count: updated at: Tue, 13 Apr 2021 04:03:39 GMT